Location: Newark
(51.5714°N, 0.6956°E)
Time: 20:01:17
(UTC+00:00)

ISS - Visible Passes

Search period start: 21 October 2019 00:00
Search period end: 31 October 2019 00:00
Orbit: 411 x 421 km, 51.6° (Epoch: 21 October)

Date Brightness Start Highest point End Pass type
(mag) Time Alt. Az. Time Alt. Az. Time Alt. Az.
25 Oct -1.0 05:36:15 10° S 05:38:37 18° SE 05:40:57 10° E visible
26 Oct -0.8 04:48:50 10° SSE 04:50:14 12° SE 04:51:36 10° ESE visible
27 Oct -2.2 05:34:44 10° SW 05:37:48 33° SSE 05:40:53 10° E visible
28 Oct -1.7 04:47:33 16° S 04:49:19 24° SSE 04:52:05 10° E visible
29 Oct -1.2 04:01:15 16° SE 04:01:15 16° SE 04:03:06 10° E visible
29 Oct -3.3 05:34:09 13° WSW 05:37:06 57° SSE 05:40:25 10° E visible
30 Oct -2.9 04:47:44 36° SSW 04:48:30 43° SSE 04:51:44 10° E visible
